This demonstration page uses our WeatherBlox Daily Observations layout. Learn more.

36.19886, -115.1175

Hourly Observations for September 29, 2019

Temp ( °F °C ) Dew Point ( °F °C ) Humidity (%) Winds ( mph kmh ) Pressure ( in mb ) Visibility ( mi km ) Precip ( " mm )
12:53 am 00:53 Clear 66 18.9 40 4.4 39 39 VRB 3 6 29.53 1000 10 16.09344 0 0
1:53 am 01:53 Clear 67 19.4 37 2.8 33 33 WSW 9 15 29.56 1001 10 16.09344 0 0
2:53 am 02:53 Clear 65 18.3 40 4.4 40 40 SW 12 19 29.59 1002 10 16.09344 0 0
3:53 am 03:53 Clear 63 17.2 37 2.8 38 38 S 21 33 29.59 1002 10 16.09344 0 0
4:53 am 04:53 Clear 62 16.7 35 1.7 37 37 SW 12 19 29.62 1003 10 16.09344 0 0
5:53 am 05:53 Clear 62 16.7 26 -3.3 25 25 SW 28 44 29.62 1003 10 16.09344 0 0
6:53 am 06:53 Sunny 61 16.1 26 -3.3 26 26 SW 20 31 29.68 1005 10 16.09344 0 0
7:53 am 07:53 Sunny 63 17.2 27 -2.8 26 26 SW 18 30 29.71 1006 10 16.09344 0 0
8:53 am 08:53 Sunny 65 18.3 24 -4.4 21 21 SW 16 26 29.74 1007 10 16.09344 0 0
9:53 am 09:53 Sunny 67 19.4 23 -5 19 19 SW 10 17 29.77 1008 10 16.09344 0 0
10:53 am 10:53 Sunny 69 20.6 24 -4.4 18 18 W 7 11 29.77 1008 10 16.09344 0 0
11:53 am 11:53 Sunny 71 21.7 23 -5 16 16 VRB 3 6 29.77 1008 10 16.09344 0 0
12:53 pm 12:53 Sunny 72 22.2 23 -5 16 16 undefined N/A 29.74 1007 10 16.09344 0 0
1:53 pm 13:53 Sunny 72 22.2 23 -5 16 16 VRB 3 6 29.71 1006 10 16.09344 0 0
2:53 pm 14:53 Sunny 73 22.8 20 -6.7 13 13 S 9 15 29.71 1006 10 16.09344 0 0
3:53 pm 15:53 Sunny 74 23.3 19 -7.2 12 12 SSE 12 19 29.71 1006 10 16.09344 0 0
4:53 pm 16:53 Sunny 74 23.3 16 -8.9 11 11 SSE 14 22 29.68 1005 10 16.09344 0 0
5:53 pm 17:53 Sunny 74 23.3 14 -10 10 10 S 15 24 29.68 1005 10 16.09344 0 0
6:53 pm 18:53 Clear 71 21.7 12 -11.1 10 10 SSW 15 24 29.68 1005 10 16.09344 0 0
7:53 pm 19:53 Clear 70 21.1 14 -10 11 11 SW 12 19 29.71 1006 10 16.09344 0 0
8:53 pm 20:53 Clear 67 19.4 16 -8.9 14 14 SSE 9 15 29.71 1006 10 16.09344 0 0
9:53 pm 21:53 Clear 67 19.4 15 -9.4 13 13 SSW 12 19 29.71 1006 10 16.09344 0 0
10:53 pm 22:53 Clear 66 18.9 9 -12.8 10 10 SSW 10 17 29.71 1006 10 16.09344 0 0
11:53 pm 23:53 Clear 65 18.3 13 -10.6 13 13 SW 16 26 29.71 1006 10 16.09344 0 0

Powered by AerisWeather